Skip Page Navigation
NASA JPL Caltech
NASA Logo - Jet Propulsion Laboratory + View the NASA Portal
+ Center for Near-Earth Object Studies
JPL Home Earth Solar System Stars & Galaxies Technology
JPL Solar System Dynamics
BODIES ORBITS EPHEMERIDES TOOLS PHYSICAL DATA DISCOVERY FAQ SITE MAP
JPL Small-Body Database Browser
Search: [ help ]  
1685 Toro (1948 OA)
Classification: Apollo [NEO]          SPK-ID: 2001685
Ephemeris | Orbit Diagram | Orbital Elements | Mission Design | Physical Parameters | Discovery Circumstances | Close-Approach Data ]

[ show orbit diagram ]
Orbital Elements at Epoch 2459200.5 (2020-Dec-17.0) TDB
Reference: JPL 573 (heliocentric ecliptic J2000)
 Element Value Uncertainty (1-sigma)   Units 
e .43585252899289 3.8099e-09  
a 1.367568239915662 6.8787e-10 au
q .7715101639780652 4.9709e-09 au
i 9.382596934283606 4.346e-07 deg
node 274.2414515678404 1.6517e-06 deg
peri 127.2215292396534 2.0088e-06 deg
M 53.50195642330456 1.2338e-06 deg
tp 2459113.686133569207
(2020-Sep-21.18613357)
1.9488e-06 TDB
period 584.1467117167384
1.60
4.4073e-07
1.207e-09
d
yr
n .6162835342203714 4.6498e-10 deg/d
Q 1.963626315853258 9.8768e-10 au

Additional Model Parameters
 Parameter Value Uncertainty (1-sigma) 
A2 [EST] -3.318472630528062E-15 6.436E-16
ALN [SET] 1. n/a
NK [SET] 0. n/a
NM [SET] 2. n/a
R0 [SET] 1. n/a
  Orbit Determination Parameters
   # obs. used (total)      3428  
   # delay obs. used      7  
   # Doppler obs. used      2  
   data-arc span      26575 days (72.76 yr)  
   first obs. used      1948-07-17  
   last obs. used      2021-04-20  
   planetary ephem.      DE441  
   SB-pert. ephem.      SB441-N16  
   condition code      0  
   norm. resid. RMS      .32174  
   source      ORB  
   producer      Otto Matic  
   solution date      2021-Apr-20 06:22:20  

Additional Information
 Earth MOID = .0507761 au 
 Jupiter MOID = 3.4803 au 
 T_jup = 4.715 
 Nongravitational accels. using nonstandard g(r) = (1 au/ r)^2 
[ show covariance matrix ]

Ephemeris | Orbit Diagram | Orbital Elements | Mission Design | Physical Parameters | Discovery Circumstances | Close-Approach Data ]

Physical Parameter Table
Parameter Symbol Value Units Sigma Reference Notes
absolute magnitude H 14.33   n/a E2021B10  
diameter diameter 3.4 km n/a Hazards due to Comets and Asteroids (1994), Ed. T. Gehrels, pp.540-543  
rotation period rot_per 10.1995 h n/a LCDB (Rev. 2020-October); Warner et al., 2009 Published Reference List:
[Dunlap, J.L.; Gehrels, T.; Howes, M.L. (1973) Astron. J. 78, 491-501.]
[De Angelis, G. (1995) Planet. Space Sci. 43, 649-682.]
[Torppa, J.; Aksnes, K.; Dai, Z.; Grav, T.; et al. (2005) Bull. Amer. Astron. Soc. 37, 643.]
[Higgins, D. (2008) Minor Planet Bull. 35, 30-32.]
[Higgins, D.; Pravec, P.; Kusnirak, P.; Hornoch, K.; Brinsfield, J.W.; Allen, B.; Warner, B.D. (2008) Minor Planet Bull. 35, 123-126.]
[Higgins, D. (2011) Minor Planet Bull. 38, 41-46.]
[Oey, J. (2011) Minor Planet Bull. 38, 221-223.]
[Warner, B.D. (2013). Minor Planet Bull. 40, 26-29.]
[Warner, B.D. (2016) Minor Planet Bull. 43, 240-250.]
[Oey, J.; Williams, H.; Groom, R. (2017) Minor Planet Bull. 44, 200-204.]
[Durech, J.; Vokrouhlicky, D.; Pravec, P.; Hanus, J.; et al. (2018) Astron. Astrophys. 609, A86.]
[Warner, B.D.; Stephens, R.D. (2020) Minor Planet Bull. 47, 290-304.]
geometric albedo albedo 0.31   n/a Hazards due to Comets and Asteroids (1994), Ed. T. Gehrels, pp.540-543  
B-V BV 0.880   0.027 EAR-A-5-DDR-UBV-MEAN-VALUES-V1.2 #obs=5; phase (min.=39.08, mean=63.48, max.=99.00) deg.
U-B UB 0.470   0.022 EAR-A-5-DDR-UBV-MEAN-VALUES-V1.2 #obs=4; phase (min.=41.43, mean=59.67, max.=75.99) deg.
Tholen spectral type spec_T S   n/a EAR-A-5-DDR-TAXONOMY-V4.0 used 2 color indices
SMASSII spectral type spec_B S   n/a EAR-A-5-DDR-TAXONOMY-V4.0 based on a high-resolution spectrum by Xu et al. (1995) or Bus and Binzel (2002)

1685 Toro (1948 OA)          Discovered 1948-Jul-17 by Wirtanen, C. A. at Mount Hamilton
Reference: DISCOVERY.DBLast Updated: 2003-08-29

[ hide close-approach data ]
Close-Approach Data   ...sorted by Date/Time (TDB)
Date/Time (TDB) Time Uncertainty
(days_HH:MM)
Body Nominal Distance (au) Minimum Distance (au) Maximum Distance (au) V-relative (km/s) V-infinity (km/s) JD (TDB) Time Uncertainty (minutes) Semi-major axis (km) Semi-minor axis (km) range-LOV angle (deg) N-sigma BP Orbit Ref. Reference Modified
1900-Aug-02 11:05 < 00:01 Earth 0.200265908869374 0.200263798437879 0.200268019313585 17.0091189969893 17.0083367687367 2415233.962001944 0.187291533380928 131.930243168777 1.22647695319824 -37.0950364744067 13401424.1768383 T 573 CATAB v2.0g-lin.ifort 2021-Apr-20 06:23:03 2021-Apr-20 06:23
1904-Jan-29 05:51 < 00:01 Earth 0.297915799182627 0.297913135281093 0.297918463085211 21.1757699195441 21.1753475584143 2416508.743718170 0.206697920380395 135.749642301998 0.958015636842748 11.8930237661926 8756592.26807075 T 573 CATAB v2.0g-lin.ifort 2021-Apr-20 06:23:03 2021-Apr-20 06:23
1908-Aug-04 01:10 < 00:01 Earth 0.177033179554856 0.1770311456882 0.177035213441649 16.135121323545 16.1341885032073 2418157.548335925 0.199192689291026 138.390052989191 1.22125369840483 -42.8780080867404 13467710.9116757 T 573 CATAB v2.0g-lin.ifort 2021-Apr-20 06:23:03 2021-Apr-20 06:23
1912-Jan-31 01:55 < 00:01 Earth 0.330450527171645 0.330447885064091 0.330453169280025 22.1491076018388 22.1487435583701 2419432.579810991 0.202139313958025 134.331280160971 0.946063289402872 11.2520990646597 9324402.74075226 T 573 CATAB v2.0g-lin.ifort 2021-Apr-20 06:23:03 2021-Apr-20 06:23
1916-Aug-05 18:54 < 00:01 Earth 0.154401468150565 0.154399863479208 0.154403072847779 15.1884892072504 15.1873529868072 2421081.287726208 0.188024378416714 127.800559900452 1.21528172744042 -51.2416095189676 13613664.1207269 T 573 CATAB v2.0g-lin.ifort 2021-Apr-20 06:23:03 2021-Apr-20 06:23
1920-Feb-01 16:58 < 00:01 Earth 0.36159536776418 0.361593037279251 0.361597698249643 23.0673852874817 23.0670658439225 2422356.207081648 0.176775070629596 118.266759959332 0.93310297733768 10.700509771813 9860375.91845389 T 573 CATAB v2.0g-lin.ifort 2021-Apr-20 06:23:03 2021-Apr-20 06:23
1924-Aug-07 09:59 < 00:01 Earth 0.138349086454713 0.138348042321186 0.138350130613225 14.3510011594109 14.3496590924993 2424004.915973846 0.16097841696371 106.348196353456 1.20955475070078 -60.696142850936 13818117.2454502 T 573 CATAB v2.0g-lin.ifort 2021-Apr-20 06:23:03 2021-Apr-20 06:23
1928-Feb-03 02:53 < 00:01 Earth 0.387207908253399 0.387206040410938 0.387209776096169 23.8390671334589 23.8387784768463 2425279.619850693 0.14134484760392 94.6926741677818 0.923987655388194 10.3882666821441 10375863.7967576 T 573 CATAB v2.0g-lin.ifort 2021-Apr-20 06:23:03 2021-Apr-20 06:23
1932-Aug-08 15:40 < 00:01 Earth 0.129129830279473 0.129129251861431 0.129130408715411 13.7183294068442 13.7168251972293 2426928.152614927 0.126095964678123 81.1791064402313 1.2046202197903 -69.2077211412085 14002581.9142588 T 573 CATAB v2.0g-lin.ifort 2021-Apr-20 06:23:03 2021-Apr-20 06:23
1936-Feb-04 06:30 < 00:01 Earth 0.407587945742915 0.407586558614852 0.40758933287114 24.449459456834 24.4491920797774 2428202.771067868 0.105188918749161 70.2787596899381 0.917449797435656 10.1931999472786 10820982.5867178 T 573 CATAB v2.0g-lin.ifort 2021-Apr-20 06:23:03 2021-Apr-20 06:23
1940-Aug-09 13:03 < 00:01 Earth 0.124654994065223 0.124654708204 0.124655279936771 13.280777069645 13.2791675158161 2429851.043523819 0.0928731328795803 58.5380834587941 1.20092025702919 -75.9577637185533 14178617.4501685 T 573 CATAB v2.0g-lin.ifort 2021-Apr-20 06:23:03 2021-Apr-20 06:23
1944-Feb-04 20:00 < 00:01 Earth 0.418196426846036 0.418195450539801 0.418197403152342 24.7591034896131 24.7588461543036 2431125.333112482 0.0745969147504355 49.4471461145668 0.91294718409406 10.0815124890295 11071010.0456743 T 573 CATAB v2.0g-lin.ifort 2021-Apr-20 06:23:03 2021-Apr-20 06:23
1948-Aug-10 00:22 < 00:01 Earth 0.123647531623033 0.123647370422547 0.123647692828579 13.0971743184546 13.0955288991835 2432773.515166103 0.0649383075827805 40.6962725079462 1.1996721709016 -78.7359750364324 14280678.6663583 T 573 CATAB v2.0g-lin.ifort 2021-Apr-20 06:23:03 2021-Apr-20 06:23
1952-Feb-05 00:54 < 00:01 Earth 0.420154260518755 0.420153599695709 0.420154921341825 24.8263332652304 24.8260778226819 2434047.537844449 0.0512486772238561 33.4706625466606 0.913052173421132 10.1013346658166 11210647.9651759 T 573 CATAB v2.0g-lin.ifort 2021-Apr-20 06:23:03 2021-Apr-20 06:23
1956-Aug-09 20:36 < 00:01 Earth 0.124378956823364 0.124378833012778 0.124379080636176 13.1963161400937 13.1946926881013 2435695.358091126 0.043144295957093 27.4463339200497 1.20018022106163 -77.2438698373783 14261250.7610187 T 573 CATAB v2.0g-lin.ifort 2021-Apr-20 06:23:03 2021-Apr-20 06:23
1960-Feb-04 21:41 < 00:01 Earth 0.415648071300027 0.41564764331986 0.415648499280219 24.6880357003463 24.6877760419716 2436969.403796727 0.0340791920432119 21.6820648212636 0.915487504607003 10.1790208556147 11307419.2367143 T 573 CATAB v2.0g-lin.ifort 2021-Apr-20 06:23:03 2021-Apr-20 06:23
1964-Aug-09 09:15 < 00:01 Earth 0.127080428753939 0.127080323357156 0.127080534151575 13.4823461153565 13.4807908902356 2438616.885692628 0.0271444945479364 17.6479392136027 1.20184821484682 -73.1101889931406 14221296.0743845 T 573 CATAB v2.0g-lin.ifort 2021-Apr-20 06:23:03 2021-Apr-20 06:23
1968-Feb-04 03:24 < 00:01 Earth 0.400092020166835 0.400091761564536 0.400092278769133 24.2141285102713 24.2138534764577 2439890.641733034 0.0216243619025489 13.1052609464134 0.92081774356315 10.2955450069298 11402002.4589011 T 573 CATAB v2.0g-lin.ifort 2021-Apr-20 06:23:03 2021-Apr-20 06:23
1972-Aug-08 07:30 < 00:01 Earth 0.13549965600225 0.135499563954719 0.135499748050028 14.1138720912312 14.1124787758734 2441537.812424487 0.0158025814107558 10.4190478406461 1.20209492130488 -64.6610464618764 14229947.0322709 T 573 CATAB v2.0g-lin.ifort 2021-Apr-20 06:23:03 2021-Apr-20 06:23
